NOTE: This page is experimental. Bug reports to carter.barry@gmail.com. Query language is SQLite3.

Prepend rss. to the URL for an RSS feed, csv. to the URL for CSV output.

QUERY: SELECT station_id AS "Code", observation_time AS "Time (GMT)", ROUND(altim_in_hg,2) AS "Pressure (inches)", ROUND(temp_c*1.8+32, 1) AS "Temp. (F)", ROUND(wind_speed_kt*1.15077945) AS "Wind (mph)", (CASE WHEN wind_gust_kt THEN ROUND(wind_gust_kt*1.15077945) ELSE "NA" END) AS "Gust (mph)", DATETIME(observation_time,'-7 hours') AS "Time (MST)" FROM metar WHERE station_id='KABQ' ORDER BY observation_time DESC

To edit query (or if query above is munged), see textbox at bottom of page

Empty result may indicate error: I'm not sure why my error checking code isn't working.

Source code

Code Time (GMT) Pressure (inches) Temp. (F) Wind (mph) Gust (mph) Time (MST)
KABQ 2017-09-24T18:52:00Z 29.97 68.0 7.0 NA 2017-09-24 11:52:00
KABQ 2017-09-24T17:52:00Z 29.99 66.0 9.0 NA 2017-09-24 10:52:00
KABQ 2017-09-24T16:52:00Z 30.0 63.0 3.0 NA 2017-09-24 09:52:00
KABQ 2017-09-24T15:52:00Z 30.0 60.1 3.0 NA 2017-09-24 08:52:00
KABQ 2017-09-24T14:52:00Z 29.99 55.9 3.0 NA 2017-09-24 07:52:00
KABQ 2017-09-24T13:52:00Z 29.98 52.0 6.0 NA 2017-09-24 06:52:00
KABQ 2017-09-24T12:52:00Z 29.96 54.0 7.0 NA 2017-09-24 05:52:00
KABQ 2017-09-24T11:52:00Z 29.95 55.0 5.0 NA 2017-09-24 04:52:00
KABQ 2017-09-24T10:52:00Z 29.93 55.0 5.0 NA 2017-09-24 03:52:00
KABQ 2017-09-24T09:52:00Z 29.93 57.9 5.0 NA 2017-09-24 02:52:00
KABQ 2017-09-24T08:52:00Z 29.91 59.0 7.0 NA 2017-09-24 01:52:00
KABQ 2017-09-24T07:52:00Z 29.9 60.1 6.0 NA 2017-09-24 00:52:00
KABQ 2017-09-24T06:52:00Z 29.88 61.0 8.0 NA 2017-09-23 23:52:00
KABQ 2017-09-24T05:52:00Z 29.86 60.1 8.0 NA 2017-09-23 22:52:00
KABQ 2017-09-24T04:52:00Z 29.85 62.1 6.0 NA 2017-09-23 21:52:00
KABQ 2017-09-24T03:52:00Z 29.84 66.0 3.0 NA 2017-09-23 20:52:00
KABQ 2017-09-24T02:52:00Z 29.84 68.0 7.0 NA 2017-09-23 19:52:00
KABQ 2017-09-24T02:16:00Z 29.84 69.1 3.0 NA 2017-09-23 19:16:00
KABQ 2017-09-24T02:00:00Z 29.83 69.1 5.0 NA 2017-09-23 19:00:00
KABQ 2017-09-24T00:52:00Z 29.81 70.0 13.0 NA 2017-09-23 17:52:00
KABQ 2017-09-23T23:52:00Z 29.79 73.9 12.0 NA 2017-09-23 16:52:00
KABQ 2017-09-23T22:52:00Z 29.78 73.0 13.0 23.0 2017-09-23 15:52:00
KABQ 2017-09-23T22:36:00Z 29.78 75.9 20.0 26.0 2017-09-23 15:36:00
KABQ 2017-09-23T21:52:00Z 29.78 77.0 28.0 37.0 2017-09-23 14:52:00
KABQ 2017-09-23T20:52:00Z 29.79 81.0 23.0 32.0 2017-09-23 13:52:00
KABQ 2017-09-23T19:52:00Z 29.81 80.1 28.0 38.0 2017-09-23 12:52:00

Enter query below (must start w/ SELECT):

Schema Raw SQLite3 db RSS feed for this query